Tracking 25963 objects as of 12-Aug-2022
HD Live streaming from Space Station
objects crossing your sky now

TJS-7

Track TJS-7 now!
TJS-7 is classified as:


NORAD ID: 49115
Int'l Code: 2021-077A
Perigee: 35,790.4 km
Apogee: 35,797.1 km
Inclination: 0.2 °
Period: 1,436.1 minutes
Semi major axis: 42164 km
RCS: Unknown
Launch date: August 24, 2021
Source: People's Republic of China (PRC)
Launch site: Xichang Space Center, China (XSC)
aabbcc
Your satellite tracking list
Your tracking list is empty




NASA's NSSDC Master Catalog

Two Line Element Set (TLE):
1 49115U 21077A   22224.57148270 -.00000249  00000-0  00000-0 0  9999
2 49115   0.1725 259.2173 0000799 200.7848 213.2666  1.00271760  3722
Source of the keplerian elements: AFSPC